Regional Weather Roundup
Issued by NWS

Home | Current Version | Previous Version | Graphics & Text | Print | Product List | Glossary On
Versions: 1 2 3 4 5 6 7 8 9 10 11 12 13 14 15 16 17 18 19 20 21 22 23 24 25 26 27 28
000
ASUS45 KBOI 250210
RWRID

IDAHO REGIONAL WEATHER ROUNDUP
NATIONAL WEATHER SERVICE BOISE ID
800 PM MDT MON JUL 24 2017

NOTE: "FAIR" INDICATES FEW OR NO CLOUDS BELOW 12000 FEET
WITH NO SIGNIFICANT WEATHER AND/OR OBSTRUCTIONS TO VISIBILITY

IDZ012-014-250300-
SOUTHWEST IDAHO


CITY           SKY/WX    TMP DP  RH WIND       PRES   REMARKS
BOISE          CLOUDY    91  52  26 W9        29.82S
CALDWELL       CLOUDY    87  49  26 W21G30    29.83R HAZE
MOUNTAIN HOME  CLOUDY    94  48  20 NW14      29.83R HX  90
$$

IDZ016-017-250300-
SOUTHCENTRAL IDAHO


CITY           SKY/WX    TMP DP  RH WIND       PRES   REMARKS
BURLEY         CLOUDY    83  52  34 CALM      29.90S
JEROME         CLOUDY    87  47  24 SE8       29.92R
TWIN FALLS     CLOUDY    86  50  28 SE7       29.92R
$$

IDZ019>023-250300-
SOUTHEAST IDAHO


CITY           SKY/WX    TMP DP  RH WIND       PRES   REMARKS
IDAHO FALLS    CLOUDY    82  48  30 E6        29.99S
POCATELLO      PTCLDY    87  42  20 S6        29.96R
REXBURG        CLOUDY    78  51  38 E7        30.00S
$$

IDZ006-010-011-018-031-032-250300-
CENTRAL IDAHO MOUNTAINS


CITY           SKY/WX    TMP DP  RH WIND       PRES   REMARKS
MCCALL         PTSUNNY   79  42  26 W5        30.00R
HAILEY         PTSUNNY   77  55  47 CALM      30.02S
STANLEY          N/A     82  35  18 CALM      30.12S
SALMON         NOT AVBL
CHALLIS        SUNNY     80  48  32 NW5       29.98S
$$

IDZ002-004-006-007-026-250300-
NORTHERN IDAHO


CITY           SKY/WX    TMP DP  RH WIND       PRES   REMARKS
LEWISTON       PTSUNNY   89  27  10 NW7       29.84S
LOWELL           N/A     81  52  36 VRB3      29.83R
COEUR D`ALENE  SUNNY     82  40  22 SW7       29.92R
MULLAN PASS    SUNNY     68  30  24 VRB3      30.12R
$$




USA.gov is the U.S. government's official web portal to all federal, state and local government web resources and services.